Location: Gaast
(52.9002°N, 5.8891°E)
Time: 09:47:08
(UTC+00:00)

Okean 1 Rocket - Pass Details

Date: 18 November 2025
Orbit: 599 x 628 km, 82.5° (Epoch: 11 December)

Event Time Altitude Azimuth Distance (km) Brightness Sun altitude
Rises 18:01:36 0° 183° (S) 2,889 6.6 -21.3°
Reaches altitude 10° 18:03:50 10° 181° (S) 1,983 5.7 -21.7°
Maximum altitude 18:08:12 72° 98° (E) 653 2.9 -22.3°
Enters shadow 18:08:25 70° 72° (ENE) 660 2.9 -22.3°
